Regional Weather Roundup
Issued by NWS Cleveland, OH

Home | Current Version | Previous Version | Graphics & Text | Print | Product List | Glossary On
Versions: 1 2 3 4 5 6 7 8 9 10 11 12 13 14 15 16 17 18 19 20 21 22 23 24 25 26 27 28 29 30 31 32 33 34 35 36 37 38 39 40 41 42 43 44 45 46 47 48 49 50
000
ASUS41 KCLE 261400
RWRCLE
OHIO REGIONAL WEATHER ROUNDUP
NATIONAL WEATHER SERVICE WILMINGTON, OH
1000 AM EDT THU MAY 26 2016

NOTE: "FAIR" INDICATES FEW OR NO CLOUDS BELOW 12,000 FEET WITH NO
SIGNIFICANT WEATHER AND/OR OBSTRUCTIONS TO VISIBILITY.

OHZ001>008-015>018-024>027-034-035-043-044-261500-
   NORTHWEST OHIO

CITY           SKY/WX    TMP DP  RH WIND       PRES   REMARKS
DEFIANCE       PTSUNNY   76  64  66 VRB6      29.99F
FINDLAY        FAIR      74  61  63 SW9       30.01F
TOLEDO EXPRESS FAIR      74  64  71 SW12      29.98F
TOLEDO EXEC    FAIR      74  63  68 SW13      30.00F
LIMA           FAIR      73  64  73 SW8       30.03S
$$

OHZ009>014-019>023-028>033-038-089-261500-
   NORTHEAST OHIO

CITY           SKY/WX    TMP DP  RH WIND       PRES   REMARKS
CLE-HOPKINS    PTSUNNY   72  64  76 SW10      30.05F
CLE-LAKEFRONT  FAIR      74  63  68 SW12      30.02F
CUY CO. ARPT   NOT AVBL
LORAIN-ELYRIA  FAIR      72  62  71 SW10      30.03F
ASHTABULA      FAIR      74  63  68 S8        30.05S
AKRON-CANTON   PTSUNNY   74  62  66 SW12      30.07F
WOOSTER        NOT AVBL
MANSFIELD      CLOUDY    71  63  75 S12       30.07S
YOUNGSTOWN     CLOUDY    73  62  68 S10       30.07F
$$

OHZ042-051>053-060>062-070>072-077>081-261500-
  SOUTHWEST OHIO

CITY           SKY/WX    TMP DP  RH WIND       PRES   REMARKS
CINC-COVINGTON NOT AVBL
CINC-LUNKEN    PTSUNNY   72  66  81 S14       30.08F
HAMILTON       FAIR      75  66  73 SW7       30.08F
DAYTON         NOT AVBL
WRIGHT-PAT AFB NOT AVBL
DAYTON GENERAL CLOUDY    72  63  73 S9        30.06F
WILMINGTON     PTSUNNY   70  63  78 SW13      30.08F
$$

OHZ036-037-039>041-045>050-054>059-063>069-073>076-082>088-261500-
  CENTRAL AND SOUTHEAST OHIO

CITY           SKY/WX    TMP DP  RH WIND       PRES   REMARKS
COLUMBUS       CLOUDY    71  63  75 SW10      30.07F
OSU AIRPORT    FAIR      71  64  78 SW12      30.06F
BOLTON FIELD   MOSUNNY   72  64  78 SW9       30.07F
RICKENBACK AFB NOT AVBL
NEWARK         FAIR      74  63  68 SW10      30.07F
MARION           N/A    N/A N/A N/A MISG      30.06F
LANCASTER      FAIR      73  63  70 S8        30.09S
ZANESVILLE     FAIR      76  63  64 S8        30.08F
NEW PHILLY     FAIR      76  62  62 VRB7      30.09S
$$




USA.gov is the U.S. government's official web portal to all federal, state and local government web resources and services.